Wind_Speed
22 18 17 18 14 12 12 15 13 13 9 4 6 9 7 9 8 9 9 9 9 9 9 9 8 6 4 4 3 1 1 2 4 6 7 9 10 12 14 17 21 24 26 29 31 33 36
24 21 19 19 16 14 15 17 16 14 9 6 7 9 8 8 8 8 10 10 10 10 9 7 6 5 3 4 3 2 2 4 6 6 8 10 12 15 20 23 25 27 30 32 32 35 36
26 23 21 21 18 17 20 19 19 16 11 7 8 9 7 8 8 8 10 9 8 8 7 6 6 6 4 4 2 2 4 5 7 9 11 14 17 20 22 25 29 32 33 33 32 33 35
27 24 24 22 20 20 23 21 21 17 12 9 9 8 6 10 10 9 11 11 10 9 9 8 7 6 5 5 3 5 5 7 10 11 13 15 18 22 25 29 32 33 34 35 36 37 38
28 26 26 24 23 23 25 23 23 19 14 11 9 8 8 13 11 11 13 13 9 9 9 8 8 6 7 6 5 7 8 10 11 13 17 20 22 24 27 29 31 34 36 37 38 35 34
30 29 29 27 26 26 27 25 25 22 17 13 11 11 13 17 15 16 16 16 13 10 9 9 10 12 14 11 12 13 16 18 17 18 20 21 23 25 27 31 32 32 33 33 33 33 32
31 31 32 29 29 30 30 27 27 24 20 16 14 16 17 19 19 19 16 16 16 15 16 16 17 19 19 19 18 19 17 17 18 21 21 20 26 27 27 28 29 29 30 31 33 32 31
33 34 34 32 30 33 32 30 30 26 22 20 17 17 16 17 17 16 15 18 18 17 18 20 20 20 19 18 16 15 15 15 18 20 23 23 26 28 32 33 34 33 31 31 33 31 35
35 36 36 34 32 36 35 32 32 28 25 23 20 19 17 16 15 14 14 15 17 17 17 17 16 15 15 15 14 13 14 16 19 22 25 26 29 32 34 36 37 34 33 29 31 34 34
37 38 38 36 35 38 37 34 34 32 27 25 23 20 18 16 15 13 12 12 14 13 14 13 13 12 11 11 12 13 15 18 21 24 25 27 30 33 36 37 36 34 32 31 33 33 36
38 40 40 38 36 40 39 36 36 34 30 27 25 21 19 16 15 13 11 10 9 8 10 9 9 10 10 10 11 14 16 18 21 24 27 29 32 35 37 37 36 33 32 33 33 34 38
40 41 42 40 38 41 40 38 38 37 33 29 26 23 20 17 15 13 10 8 6 5 5 6 7 8 8 10 11 13 15 18 21 24 27 30 33 36 37 38 36 34 34 34 33 37 41
42 43 43 41 39 43 42 39 39 39 36 32 28 25 21 18 15 12 9 7 4 2 2 2 3 5 6 8 10 13 16 17 20 23 26 29 33 36 39 39 36 34 33 34 36 40 45
44 45 45 43 41 44 43 41 40 41 39 35 31 28 24 20 16 11 9 8 6 4 3 3 1 2 5 8 10 13 16 18 20 23 26 30 35 38 40 40 39 37 38 39 40 41 44
46 46 46 44 43 44 45 42 41 42 41 38 34 30 27 23 18 13 11 13 11 9 7 7 4 4 5 8 11 15 17 18 21 24 28 32 35 39 41 43 42 42 40 43 43 46 49
49 47 48 46 45 45 46 44 43 43 42 40 36 33 29 25 20 17 15 15 15 13 11 11 8 7 8 10 12 14 16 19 21 24 28 31 35 39 41 42 42 40 43 46 47 49 51
52 49 50 47 47 45 46 46 44 43 44 41 38 34 31 26 22 20 18 18 16 15 13 12 10 9 11 13 13 15 17 19 22 24 28 32 35 38 39 42 40 39 43 46 48 50 53
53 50 51 48 48 46 47 47 45 43 45 43 39 36 31 27 24 23 20 17 15 14 13 13 12 12 13 13 14 15 17 19 21 24 27 31 35 36 38 41 39 40 43 46 50 53 53
53 51 51 50 49 47 48 48 46 45 43 44 41 37 32 29 26 23 20 17 14 12 11 11 10 11 12 13 14 16 17 19 21 23 27 31 33 36 38 40 39 40 44 46 49 53 55
55 53 52 51 50 49 49 49 48 46 43 43 42 39 34 30 27 23 20 16 14 12 10 10 9 10 11 13 14 16 17 18 20 22 26 30 32 34 36 38 38 40 44 47 50 52 53
56 54 53 53 51 51 50 51 50 48 45 43 40 37 33 30 27 23 21 18 15 13 12 11 11 11 11 12 14 15 16 18 19 21 24 29 31 33 35 36 36 39 44 48 48 51 53
59 57 54 54 52 50 49 51 50 50 47 44 41 38 35 32 29 26 23 20 17 15 14 13 12 13 12 13 15 16 17 17 19 20 23 27 29 31 33 33 35 39 44 46 47 51 54
62 59 57 55 54 52 51 52 50 50 48 46 44 42 39 35 32 28 24 22 19 17 15 14 13 13 13 15 16 17 18 19 19 20 22 25 28 29 30 33 35 38 43 45 48 50 54
65 61 58 56 56 54 52 52 53 51 50 49 46 44 41 37 34 31 27 25 21 18 16 15 14 14 16 16 17 18 18 19 19 19 21 24 26 27 28 31 32 36 42 46 47 51 54
69 64 60 58 57 56 54 53 54 52 51 51 49 46 43 40 37 33 30 27 24 20 18 17 16 16 15 15 16 18 19 20 19 18 20 22 24 25 27 29 30 34 42 45 47 50 52
73 67 63 59 58 57 56 54 53 54 52 52 50 49 46 43 40 36 33 30 26 23 21 18 18 15 12 11 14 18 19 20 19 19 20 22 23 24 26 29 31 34 41 43 46 47 51
76 71 67 62 59 59 57 55 54 54 53 51 51 49 48 45 43 39 36 33 29 26 23 21 16 14 11 11 14 17 19 20 19 19 19 21 21 22 24 27 30 32 38 39 42 48 50
81 75 70 66 62 60 59 57 56 54 54 52 50 50 48 47 45 42 39 36 32 30 27 23 20 17 16 14 15 17 19 20 21 20 20 21 21 21 22 25 29 30 34 36 40 47 49
84 79 74 69 65 62 61 59 57 54 54 53 51 50 49 47 46 45 43 39 35 32 30 26 24 23 20 17 16 18 18 22 22 21 21 21 23 21 22 23 25 29 29 35 41 44 48
Wind_Direction
233 236 230 215 201 189 190 180 170 171 161 135 90 69 80 87 90 100 105 110 118 125 124 121 117 116 107 114 88 76 5 314 329 3 353 341 331 318 308 307 306 303 303 304 306 311 310
230 234 222 213 196 187 186 178 172 172 163 137 99 72 82 100 103 106 110 115 122 126 123 115 114 101 96 111 97 345 353 6 7 6 349 336 322 317 314 311 308 306 307 310 314 314 312
225 230 214 209 194 185 181 178 174 172 169 143 102 76 76 115 120 111 108 111 113 114 119 124 123 118 138 96 68 3 9 16 8 355 338 332 326 322 324 323 319 318 315 315 313 310 311
220 225 208 204 194 185 181 178 177 174 169 148 106 82 82 123 131 117 100 104 112 128 129 128 123 120 116 87 57 42 24 11 2 351 354 352 345 340 334 331 328 321 321 320 321 327 329
216 218 205 201 195 187 182 180 179 176 169 152 116 99 107 121 127 119 110 112 114 114 115 118 108 103 92 81 56 42 42 37 26 16 12 3 358 350 341 334 333 330 328 330 330 330 329
211 212 204 199 195 189 184 180 180 177 171 154 127 119 124 121 121 119 114 113 111 107 107 104 104 93 91 87 81 75 62 50 40 30 22 11 2 357 351 346 339 333 329 329 329 331 330
208 209 203 198 195 191 185 181 182 179 172 157 137 134 133 126 121 116 112 108 104 102 103 102 97 96 93 89 83 76 63 49 41 32 25 18 9 4 357 351 346 342 336 333 331 333 329
206 207 204 197 197 191 187 183 183 182 174 160 149 147 142 136 130 121 115 113 107 104 102 102 100 97 95 90 83 70 56 47 34 25 21 15 8 2 1 358 353 348 342 337 331 329 330
205 206 205 197 196 191 188 185 184 185 178 166 160 154 148 142 132 126 124 122 111 108 108 105 102 99 93 85 76 61 42 26 20 14 11 7 5 5 2 359 353 347 343 338 330 335 335
205 204 205 197 196 191 189 188 186 186 183 173 167 163 159 155 146 141 134 129 119 121 107 100 96 93 90 73 55 39 23 18 7 7 5 6 2 4 2 360 353 346 344 340 339 336 338
204 204 205 197 197 191 190 190 188 188 187 180 173 171 168 163 155 148 141 130 122 113 101 92 83 70 57 46 31 19 13 6 3 1 3 4 3 3 2 358 354 351 348 345 340 342 338
204 204 205 198 199 193 191 191 189 189 189 184 179 178 175 172 167 161 154 143 135 119 107 92 70 58 46 32 20 12 5 4 2 359 2 4 0 359 359 358 358 354 352 346 346 345 345
204 204 205 199 200 195 191 193 191 191 191 188 185 183 183 183 179 174 177 169 173 174 153 98 63 43 27 17 8 3 2 2 359 358 1 -0 360 359 360 359 358 357 350 350 352 350 350
205 204 204 201 199 198 192 194 193 192 193 193 191 189 189 191 192 198 212 222 231 244 247 240 318 7 5 0 356 352 352 358 358 359 360 1 359 359 359 360 359 360 358 357 353 351 349
206 204 204 203 200 201 195 195 195 195 196 196 197 197 194 198 206 218 235 239 245 258 266 260 270 299 328 338 344 347 349 352 355 358 0 360 359 359 1 1 -0 0 359 357 353 351 351
206 204 204 203 202 201 198 197 197 197 198 200 201 203 204 205 215 228 247 246 246 258 267 268 268 284 306 323 334 339 345 348 354 357 359 359 360 0 1 1 1 358 359 357 353 350 350
206 204 204 203 203 203 200 198 199 199 200 203 204 206 209 212 219 230 247 244 249 260 263 268 267 281 297 313 326 336 341 345 351 356 356 359 1 2 1 2 359 358 358 357 354 352 351
207 205 205 202 204 204 202 200 200 201 201 204 207 209 211 216 224 236 238 239 250 256 262 268 270 284 297 311 324 333 338 343 349 355 355 358 359 3 3 360 0 357 356 356 354 353 352
206 206 205 203 204 203 204 201 201 201 203 205 209 210 215 220 225 227 228 236 242 250 258 268 277 288 302 312 322 331 336 340 346 353 353 357 359 0 4 2 0 356 356 356 355 354 353
206 206 205 204 204 203 203 204 202 203 203 206 210 213 215 216 217 219 223 226 232 240 254 268 282 292 304 313 323 329 331 337 344 350 352 354 357 2 4 4 1 358 356 356 357 356 354
207 207 206 204 205 203 203 204 204 203 204 206 208 209 209 210 212 215 218 222 229 239 251 266 280 293 301 311 320 326 330 334 339 345 350 351 355 1 5 6 2 359 355 356 358 357 355
207 207 207 205 204 205 204 204 206 204 205 206 208 206 207 211 213 215 218 224 230 240 250 261 275 287 299 309 319 324 327 328 334 341 347 348 354 2 5 7 3 360 359 360 1 358 357
206 207 208 206 204 204 204 204 206 207 205 207 208 209 208 210 214 216 218 225 233 241 250 260 271 285 298 307 316 322 324 324 329 338 342 346 350 360 4 6 5 4 5 4 3 0 358
205 205 207 208 206 204 204 205 206 208 207 208 210 212 212 211 215 217 219 226 231 237 246 256 267 281 293 307 314 320 321 320 323 331 336 343 349 358 3 5 10 7 7 5 4 2 359
205 204 206 208 207 206 205 205 206 208 209 209 211 213 215 214 214 219 222 225 230 234 244 253 262 276 290 305 318 319 317 316 319 325 333 339 346 356 2 6 7 6 4 4 6 3 0
206 204 205 207 208 207 207 206 207 207 210 211 212 214 216 216 217 218 222 226 231 235 240 248 257 268 281 297 319 321 317 314 316 322 329 336 344 353 0 2 4 2 3 4 7 4 4
206 205 205 206 209 208 208 207 208 207 210 212 213 215 218 219 219 220 222 226 231 235 235 238 246 250 262 286 314 324 320 315 314 316 325 331 339 350 357 1 2 3 2 7 8 9 6
206 206 206 207 208 209 209 208 209 208 209 212 213 216 218 220 222 223 224 227 229 232 232 230 232 242 257 275 300 317 325 320 311 312 320 327 335 346 354 359 4 4 2 10 10 11 8
207 206 207 207 209 209 210 209 209 209 209 211 213 215 218 220 223 225 226 228 229 231 234 234 235 240 252 266 288 302 321 324 311 308 316 322 330 342 353 359 1 2 5 9 9 7 8
Height
5889 5891 5893 5895 5897 5899 5902 5904 5905 5906 5907 5907 5906 5904 5903 5902 5901 5900 5899 5900 5900 5900 5900 5900 5900 5900 5900 5899 5899 5898 5898 5897 5897 5895 5894 5892 5890 5888 5885 5882 5879 5876 5873 5869 5865 5861 5855
5886 5888 5891 5893 5895 5898 5900 5903 5904 5906 5907 5907 5906 5905 5904 5903 5902 5901 5900 5901 5901 5901 5901 5900 5900 5900 5900 5900 5899 5899 5898 5897 5896 5895 5893 5891 5889 5886 5882 5879 5876 5872 5869 5864 5861 5855 5849
5882 5885 5888 5891 5893 5896 5899 5903 5904 5906 5907 5907 5906 5906 5905 5904 5903 5902 5901 5901 5902 5901 5901 5901 5900 5900 5901 5901 5900 5899 5898 5897 5896 5894 5892 5890 5887 5884 5881 5876 5871 5866 5863 5860 5856 5851 5845
5878 5882 5885 5889 5891 5893 5897 5901 5904 5906 5907 5907 5907 5906 5906 5904 5904 5903 5902 5902 5903 5902 5902 5901 5901 5901 5901 5901 5900 5899 5898 5897 5895 5893 5891 5888 5885 5882 5877 5872 5867 5861 5857 5854 5848 5840 5834
5873 5877 5881 5886 5889 5892 5895 5899 5903 5905 5906 5907 5907 5907 5907 5905 5905 5905 5904 5904 5904 5904 5904 5903 5902 5902 5902 5901 5900 5900 5899 5897 5895 5893 5890 5888 5884 5880 5874 5869 5863 5856 5849 5842 5837 5833 5827
5868 5873 5877 5882 5886 5890 5893 5897 5901 5904 5906 5907 5907 5908 5908 5907 5907 5907 5906 5905 5905 5905 5905 5904 5904 5904 5902 5902 5901 5901 5899 5898 5896 5894 5891 5887 5883 5877 5872 5866 5860 5853 5846 5839 5834 5828 5822
5864 5869 5873 5877 5883 5887 5890 5895 5899 5903 5905 5906 5907 5909 5910 5909 5910 5909 5909 5909 5909 5908 5906 5906 5905 5904 5904 5904 5903 5902 5901 5899 5897 5894 5891 5887 5882 5877 5872 5865 5858 5851 5844 5836 5829 5824 5820
5859 5865 5870 5873 5879 5884 5888 5892 5897 5902 5904 5906 5907 5909 5911 5911 5911 5911 5911 5911 5910 5911 5909 5908 5907 5906 5906 5905 5905 5903 5902 5901 5898 5894 5890 5887 5881 5876 5869 5862 5854 5847 5840 5832 5825 5822 5815
5853 5860 5866 5868 5874 5880 5885 5889 5894 5899 5903 5905 5907 5909 5911 5912 5912 5913 5913 5913 5911 5911 5912 5911 5910 5909 5908 5907 5906 5904 5903 5900 5897 5893 5889 5884 5879 5873 5866 5858 5849 5843 5837 5832 5825 5818 5810
5848 5854 5861 5864 5870 5876 5881 5886 5891 5896 5901 5904 5906 5908 5910 5912 5914 5913 5914 5914 5913 5913 5913 5914 5912 5911 5909 5908 5906 5904 5902 5900 5896 5892 5888 5883 5877 5871 5863 5856 5849 5841 5835 5828 5821 5814 5806
5841 5849 5856 5859 5865 5871 5877 5882 5887 5893 5898 5902 5904 5906 5909 5911 5913 5914 5915 5914 5915 5915 5914 5915 5912 5911 5909 5909 5907 5904 5901 5898 5894 5891 5887 5882 5875 5868 5862 5856 5848 5840 5832 5824 5818 5811 5802
5835 5843 5850 5853 5860 5866 5873 5878 5883 5889 5894 5898 5901 5904 5907 5910 5911 5913 5914 5914 5915 5916 5914 5913 5912 5911 5910 5908 5906 5904 5901 5898 5894 5889 5884 5879 5873 5867 5861 5852 5844 5835 5828 5822 5815 5806 5797
5828 5836 5844 5848 5855 5862 5867 5874 5879 5885 5890 5895 5899 5902 5905 5908 5911 5911 5913 5914 5915 5914 5914 5914 5912 5911 5909 5908 5906 5903 5900 5897 5894 5890 5884 5879 5872 5866 5857 5849 5842 5834 5828 5820 5812 5801 5791
5821 5829 5837 5843 5849 5857 5862 5868 5875 5881 5886 5891 5896 5899 5902 5905 5908 5910 5912 5914 5913 5913 5912 5912 5911 5910 5908 5907 5905 5903 5900 5896 5893 5888 5883 5876 5871 5863 5855 5848 5840 5831 5822 5813 5805 5798 5790
5815 5822 5830 5837 5843 5851 5857 5863 5869 5876 5882 5887 5892 5896 5899 5902 5905 5908 5910 5911 5911 5911 5911 5910 5909 5908 5907 5906 5904 5901 5898 5895 5891 5886 5881 5874 5867 5859 5851 5843 5835 5826 5819 5811 5804 5793 5783
5807 5814 5823 5830 5837 5844 5851 5857 5864 5870 5876 5882 5887 5892 5895 5899 5902 5904 5907 5908 5909 5909 5908 5908 5907 5906 5905 5903 5902 5899 5896 5893 5889 5884 5878 5873 5866 5857 5850 5842 5834 5825 5817 5807 5798 5788 5779
5799 5806 5814 5822 5831 5838 5845 5852 5858 5864 5871 5877 5883 5888 5892 5895 5898 5901 5903 5904 5905 5906 5906 5906 5905 5904 5903 5901 5899 5896 5894 5891 5887 5882 5877 5870 5865 5858 5849 5842 5834 5825 5815 5806 5797 5788 5775
5791 5798 5807 5814 5823 5831 5838 5845 5852 5858 5865 5872 5877 5883 5888 5891 5895 5897 5899 5901 5902 5903 5903 5903 5902 5902 5900 5899 5897 5894 5891 5888 5884 5880 5875 5869 5862 5856 5849 5841 5832 5823 5815 5805 5794 5785 5775
5782 5791 5799 5806 5815 5823 5832 5839 5846 5852 5859 5866 5872 5877 5882 5887 5890 5892 5895 5897 5898 5899 5900 5900 5900 5899 5898 5896 5895 5892 5889 5886 5882 5878 5873 5867 5861 5854 5847 5841 5831 5822 5813 5804 5795 5784 5772
5772 5782 5791 5799 5807 5815 5823 5832 5839 5846 5853 5860 5866 5872 5877 5881 5884 5888 5890 5893 5895 5896 5897 5897 5897 5896 5895 5893 5892 5889 5887 5884 5880 5876 5871 5865 5859 5853 5846 5838 5830 5821 5812 5802 5793 5784 5772
5765 5774 5782 5790 5798 5807 5815 5824 5832 5839 5847 5854 5860 5866 5872 5876 5879 5883 5886 5889 5891 5893 5894 5894 5894 5893 5892 5891 5889 5887 5884 5881 5878 5874 5869 5864 5858 5852 5845 5838 5830 5821 5812 5803 5793 5784 5772
5755 5764 5773 5782 5790 5800 5808 5816 5825 5832 5840 5847 5854 5861 5865 5870 5874 5878 5882 5885 5887 5888 5890 5890 5891 5890 5889 5888 5886 5884 5881 5879 5875 5871 5867 5862 5856 5850 5844 5837 5830 5821 5812 5802 5793 5782 5771
5744 5755 5765 5773 5781 5790 5798 5807 5817 5826 5833 5840 5847 5854 5859 5864 5868 5873 5877 5880 5883 5885 5886 5887 5887 5887 5886 5885 5883 5881 5879 5876 5873 5869 5864 5860 5855 5849 5843 5837 5829 5822 5812 5802 5792 5782 5771
5733 5745 5755 5765 5773 5781 5790 5798 5807 5817 5825 5833 5840 5847 5853 5858 5862 5867 5871 5874 5877 5880 5882 5883 5884 5884 5883 5881 5880 5878 5875 5872 5870 5866 5862 5858 5854 5848 5842 5836 5829 5822 5812 5803 5792 5781 5772
5723 5734 5744 5754 5764 5773 5781 5789 5798 5808 5817 5824 5832 5839 5846 5852 5856 5861 5865 5869 5872 5875 5877 5878 5879 5880 5879 5878 5877 5875 5872 5870 5866 5864 5860 5856 5852 5847 5841 5835 5830 5821 5813 5803 5793 5783 5772
5712 5723 5734 5745 5755 5764 5772 5781 5789 5798 5808 5816 5823 5831 5838 5844 5850 5854 5858 5863 5866 5870 5872 5873 5875 5875 5875 5874 5873 5871 5869 5866 5863 5860 5857 5853 5849 5845 5839 5833 5827 5820 5811 5802 5794 5785 5772
5699 5712 5723 5734 5745 5754 5763 5772 5780 5789 5798 5807 5815 5822 5830 5837 5842 5847 5851 5856 5860 5863 5866 5867 5870 5870 5871 5870 5869 5868 5865 5863 5860 5857 5854 5851 5847 5843 5838 5832 5826 5818 5811 5802 5794 5787 5773
5688 5699 5712 5723 5734 5744 5754 5762 5771 5780 5788 5798 5805 5813 5821 5828 5834 5839 5844 5849 5853 5856 5859 5862 5864 5865 5866 5866 5865 5863 5861 5859 5856 5854 5852 5849 5845 5841 5836 5831 5824 5818 5810 5803 5794 5783 5774
5674 5687 5701 5713 5724 5734 5744 5753 5762 5771 5778 5788 5797 5803 5811 5819 5826 5831 5836 5841 5845 5849 5853 5855 5858 5859 5860 5861 5861 5859 5857 5855 5852 5850 5848 5846 5842 5839 5834 5829 5823 5817 5809 5802 5794 5784 5775